Simultaneous Nadir Overpasses (SNOs) Predictions

Prediction of SNOs between FY3D and METOP-C Satellite Orbit:

Table of predicted SNOs for the next 14.0 days since TLE Epoch: 4/3/2021
Index Date (FY3D) Time (FY3D) Lat,Lon (FY3D) SZA (FY3D ) Date (METOP-C) Time (METOP-C) Lat,Lon (METOP-C) SZA (METOP-C ) Distance(km) Time Diff (sec)
1 04/09/2021 19:59:50 -74.01, 51.58 113.77 04/09/2021 20:00:56 -73.96, 54.69 113.95 95.58 66
2 04/09/2021 20:50:32 73.87,-140.77 66.07 04/09/2021 20:51:39 73.84,-138.27 65.93 77.17 67
3 04/09/2021 21:41:14 -73.77, 26.80 114.06 04/09/2021 21:42:23 -73.69, 28.71 114.22 59.93 69
4 04/09/2021 22:31:56 73.62,-165.55 65.77 04/09/2021 22:33:06 73.57,-164.25 65.66 41.36 70
5 04/09/2021 23:22:37 -73.47, 2.13 114.41 04/09/2021 23:23:50 -73.42, 2.75 114.50 20.42 73
6 04/10/2021 00:13:19 73.33, 169.77 65.42 04/10/2021 00:14:33 73.30, 169.80 65.38 3.53 74
7 04/10/2021 01:04:03 -73.32, -22.91 114.60 04/10/2021 01:05:14 -73.30, -22.86 114.63 2.77 71
8 04/10/2021 01:54:47 73.28, 144.51 65.35 04/10/2021 01:55:55 73.28, 144.42 65.34 2.94 68
9 04/10/2021 02:45:31 -73.27, -48.17 114.68 04/10/2021 02:46:36 -73.28, -48.25 114.68 2.62 65
10 04/10/2021 03:36:16 73.28, 119.13 65.32 04/10/2021 03:37:16 73.31, 119.14 65.34 2.88 60
11 04/10/2021 04:27:00 -73.28, -73.54 114.70 04/10/2021 04:27:58 -73.26, -73.63 114.72 3.37 58
12 04/10/2021 05:17:45 73.28, 93.76 65.30 04/10/2021 05:18:38 73.29, 93.76 65.29 0.42 53
13 04/10/2021 06:08:29 -73.28, -98.91 114.73 04/10/2021 06:09:19 -73.29, -98.91 114.72 1.42 50
14 04/10/2021 06:59:14 73.28, 68.39 65.27 04/10/2021 07:00:00 73.26, 68.37 65.25 2.13 46
15 04/10/2021 07:49:58 -73.28,-124.29 114.75 04/10/2021 07:50:41 -73.27,-124.29 114.77 1.06 43
16 04/10/2021 08:40:43 73.28, 43.01 65.25 04/10/2021 08:41:21 73.29, 43.10 65.25 2.85 38
17 04/10/2021 09:31:27 -73.28,-149.66 114.78 04/10/2021 09:32:03 -73.25,-149.68 114.81 3.54 36
18 04/10/2021 10:22:12 73.29, 17.64 65.22 04/10/2021 10:22:43 73.27, 17.71 65.20 2.66 31
19 04/10/2021 11:12:56 -73.28,-175.03 114.80 04/10/2021 11:13:24 -73.28,-174.95 114.81 2.69 28
20 04/10/2021 12:03:40 73.24, -7.62 65.14 04/10/2021 12:04:05 73.25, -7.68 65.16 2.41 25
21 04/10/2021 12:54:24 -73.23, 159.70 114.88 04/10/2021 12:54:46 -73.26, 159.66 114.86 2.99 22
22 04/10/2021 13:45:09 73.24, -33.00 65.12 04/10/2021 13:45:27 73.23, -33.06 65.11 2.24 18
23 04/10/2021 14:35:53 -73.23, 134.33 114.90 04/10/2021 14:36:08 -73.24, 134.28 114.90 1.69 15
24 04/10/2021 15:26:38 73.24, -58.37 65.09 04/10/2021 15:26:48 73.26, -58.34 65.11 2.59 10
25 04/10/2021 16:17:22 -73.24, 108.96 114.93 04/10/2021 16:17:30 -73.22, 108.89 114.95 3.01 8
26 04/10/2021 17:08:07 73.24, -83.74 65.07 04/10/2021 17:08:10 73.24, -83.72 65.07 0.69 3
27 04/10/2021 17:58:51 -73.24, 83.58 114.95 04/10/2021 17:58:51 -73.25, 83.62 114.95 1.44 0
28 04/10/2021 18:49:36 73.24,-109.12 65.05 04/10/2021 18:49:32 73.22,-109.11 65.02 2.60 4
29 04/10/2021 19:40:20 -73.24, 58.21 114.98 04/10/2021 19:40:13 -73.23, 58.23 114.99 1.72 7
30 04/10/2021 20:31:05 73.25,-134.49 65.02 04/10/2021 20:30:53 73.25,-134.38 65.02 3.51 12
31 04/10/2021 21:21:48 -73.19, 32.95 115.06 04/10/2021 21:21:35 -73.20, 32.85 115.04 3.55 13
32 04/10/2021 22:12:34 73.25,-159.86 65.00 04/10/2021 22:12:15 73.23,-159.77 64.98 3.64 19
33 04/10/2021 23:03:18 -73.24, 7.46 115.03 04/10/2021 23:02:56 -73.23, 7.57 115.03 3.64 22
34 04/10/2021 23:54:02 73.20, 174.88 64.92 04/10/2021 23:53:37 73.21, 174.85 64.93 1.46 25
35 04/11/2021 00:44:46 -73.19, -17.80 115.10 04/11/2021 00:44:18 -73.21, -17.81 115.08 2.24 28
36 04/11/2021 01:35:31 73.20, 149.50 64.89 04/11/2021 01:34:59 73.19, 149.46 64.89 1.80 32
37 04/11/2021 02:26:15 -73.20, -43.17 115.13 04/11/2021 02:25:40 -73.19, -43.20 115.12 0.83 35
38 04/11/2021 03:17:00 73.20, 124.13 64.87 04/11/2021 03:16:20 73.22, 124.19 64.89 2.65 40
39 04/11/2021 04:07:44 -73.20, -68.55 115.15 04/11/2021 04:07:02 -73.17, -68.58 115.17 2.96 42
40 04/11/2021 04:58:29 73.20, 98.75 64.85 04/11/2021 04:57:42 73.20, 98.80 64.85 1.67 47
41 04/11/2021 05:49:13 -73.20, -93.92 115.18 04/11/2021 05:48:23 -73.20, -93.86 115.17 2.04 50
42 04/11/2021 06:39:58 73.20, 73.38 64.82 04/11/2021 06:39:04 73.18, 73.42 64.80 3.33 54
43 04/11/2021 07:30:42 -73.20,-119.29 115.20 04/11/2021 07:29:45 -73.18,-119.24 115.21 2.63 57
44 04/11/2021 08:21:26 73.16, 48.12 64.74 04/11/2021 08:20:26 73.16, 48.03 64.76 2.79 60
45 04/11/2021 09:12:10 -73.15,-144.56 115.28 04/11/2021 09:11:07 -73.16,-144.63 115.26 2.52 63
46 04/11/2021 10:02:55 73.16, 22.75 64.72 04/11/2021 10:01:47 73.18, 22.76 64.76 3.14 68
47 04/11/2021 10:53:39 -73.15,-169.93 115.30 04/11/2021 10:52:29 -73.14,-170.01 115.30 3.02 70
48 04/11/2021 11:44:24 73.16, -2.63 64.69 04/11/2021 11:43:09 73.16, -2.63 64.71 0.64 75
49 04/11/2021 12:35:06 -73.05, 164.92 115.44 04/11/2021 12:33:52 -73.07, 164.49 115.39 13.77 74
50 04/11/2021 13:25:48 72.91, -27.46 64.40 04/11/2021 13:24:36 72.89, -28.55 64.44 35.99 72
51 04/11/2021 14:16:29 -72.80, 140.08 115.73 04/11/2021 14:15:18 -72.80, 138.58 115.67 49.49 71
52 04/11/2021 15:07:10 72.61, -52.19 64.05 04/11/2021 15:06:02 72.62, -54.46 64.16 75.48 68
53 04/11/2021 15:57:52 -72.50, 115.34 116.08 04/11/2021 15:56:45 -72.52, 112.68 115.94 88.88 67



Historial Predications of SNOs between FY3D and METOP-C
